EA1DB-1 Weather Reports


time (UTC)temp
C
wind
direction
speed
KPH
gust
KPH
rain 1hr
cm
rain 24hr
cm
rain mn
cm
humidity
%
barometer
mb
20260505041148 11 0.0 0.0 0.00 0.00 0.00 91 1011.8
20260505040124 11 0.0 0.0 0.00 0.00 0.00 91 1012.0
20260505035208 11 0.0 0.0 0.00 0.00 0.00 90 1012.0
20260505034144 11 180 0.0 1.6 0.00 0.00 0.00 90 1012.2
20260505033148 11 315 3.2 4.8 0.00 0.00 0.00 90 1012.2
20260505032144 11 135 0.0 3.2 0.00 0.00 0.00 90 1012.1
20260505031208 11 90 1.6 3.2 0.00 0.00 0.00 89 1012.1
20260505030124 11 135 0.0 3.2 0.00 0.00 0.00 89 1012.4
20260505025148 11 135 0.0 3.2 0.00 0.00 0.00 89 1012.2
20260505024144 11 135 0.0 1.6 0.00 0.00 0.00 88 1012.5
20260505023148 11 90 3.2 4.8 0.00 0.00 0.00 88 1012.4
20260505022124 11 0.0 0.0 0.00 0.00 0.00 88 1012.6
20260505021148 11 135 0.0 1.6 0.00 0.00 0.00 87 1012.4
20260505020124 11 0.0 0.0 0.00 0.00 0.00 87 1012.5
20260505015148 11 0.0 0.0 0.00 0.00 0.00 87 1012.7
20260505014123 11 0.0 0.0 0.00 0.00 0.00 87 1012.7
20260505013208 11 135 0.0 1.6 0.00 0.00 0.00 86 1012.8
20260505012124 11 135 0.0 3.2 0.00 0.00 0.00 86 1012.9
20260505011208 11 0.0 0.0 0.00 0.00 0.00 85 1012.9
20260505010124 11 135 0.0 3.2 0.00 0.00 0.00 85 1013.0
20260505005148 11 0.0 0.0 0.00 0.00 0.00 85 1013.2
20260505004124 11 0.0 0.0 0.00 0.00 0.00 84 1013.1
20260505003148 11 135 0.0 3.2 0.00 0.00 0.00 83 1013.1
20260505002124 11 0.0 0.0 0.00 0.00 0.00 82 1013.2
20260505001148 11 0.0 0.0 0.00 0.00 0.00 81 1013.2
20260505000123 11 112 0.0 1.6 0.00 0.00 0.00 81 1013.1
20260504235148 12 0.0 0.0 0.00 0.00 0.00 79 1013.2
20260504234204 12 0.0 0.0 0.00 0.00 0.00 78 1013.1
20260504233147 12 0.0 0.0 0.00 0.00 0.00 77 1012.9
20260504232124 12 0.0 0.0 0.00 0.00 0.00 76 1013.1
20260504231148 12 180 0.0 3.2 0.00 0.00 0.00 75 1013.1
20260504230144 12 157 0.0 3.2 0.00 0.00 0.00 75 1013.2
20260504225148 12 0.0 0.0 0.00 0.00 0.00 75 1013.2
20260504224124 12 0.0 0.0 0.00 0.00 0.00 73 1013.2
20260504223148 12 0.0 1.6 0.00 0.00 0.00 72 1013.3
20260504222144 12 0.0 0.0 0.00 0.00 0.00 71 1013.3
20260504221148 12 0.0 0.0 0.00 0.00 0.00 70 1013.4
20260504220124 12 0.0 0.0 0.00 0.00 0.00 70 1013.3
20260504215148 13 0.0 0.0 0.00 0.00 0.00 70 1013.5
20260504214124 13 0.0 0.0 0.00 0.00 0.00 69 1013.5
20260504213147 13 0.0 0.0 0.00 0.00 0.00 69 1013.5
20260504212144 13 0.0 0.0 0.00 0.00 0.00 69 1013.6
20260504211148 13 0.0 0.0 0.00 0.00 0.00 67 1013.4
20260504210124 13 0.0 1.6 0.00 0.00 0.00 67 1013.2
20260504205148 13 0.0 0.0 0.00 0.00 0.00 66 1013.4
20260504204124 13 0.0 0.0 0.00 0.00 0.00 67 1013.1
20260504203148 13 0.0 0.0 0.00 0.00 0.00 67 1013.3
20260504202124 13 0.0 0.0 0.00 0.00 0.00 66 1013.0
20260504201208 13 0.0 0.0 0.00 0.00 0.00 66 1012.9
20260504200124 13 0.0 1.6 0.00 0.00 0.00 64 1012.8
20260504195148 13 225 0.0 3.2 0.00 0.00 0.00 64 1012.9
20260504194124 13 270 0.0 3.2 0.00 0.00 0.00 64 1012.6
20260504193148 14 180 1.6 4.8 0.00 0.00 0.00 64 1012.6
20260504192144 14 0.0 0.0 0.00 0.00 0.00 64 1012.5
20260504191148 14 0.0 0.0 0.00 0.00 0.00 64 1012.6
20260504190124 14 225 0.0 4.8 0.00 0.00 0.00 65 1012.4
20260504185148 15 0.0 3.2 0.00 0.00 0.00 64 1012.5
20260504184124 15 270 1.6 4.8 0.00 0.00 0.00 64 1012.5
20260504183148 15 135 3.2 6.4 0.00 0.00 0.00 65 1012.3
20260504182124 15 157 1.6 8.0 0.00 0.00 0.00 65 1012.2
20260504181208 15 225 1.6 4.8 0.00 0.00 0.00 64 1012.3
20260504180124 15 0.0 1.6 0.00 0.00 0.00 63 1012.3
20260504175228 15 225 0.0 3.2 0.00 0.00 0.00 62 1012.4
20260504174124 15 90 1.6 6.4 0.00 0.00 0.00 62 1012.3
20260504173148 15 225 1.6 4.8 0.00 0.00 0.00 61 1012.4
20260504172144 15 180 0.0 1.6 0.00 0.00 0.00 61 1012.2
20260504171148 15 135 1.6 3.2 0.00 0.00 0.00 58 1012.3
20260504170124 16 0.0 1.6 0.00 0.00 0.00 59 1012.4
20260504160144 16 270 1.6 8.0 0.00 0.00 0.00 64 1012.1
20260504150124 16 292 1.6 6.4 0.00 0.00 0.00 53 1012.6
20260504141148 16 270 4.8 9.7 0.00 0.00 0.00 56 1012.6
20260504140124 16 315 6.4 17.7 0.00 0.00 0.00 54 1012.8
20260504130124 15 315 6.4 11.3 0.00 0.00 0.00 53 1012.7
20260504120124 17 315 4.8 6.4 0.00 0.00 0.00 56 1012.6
20260504110124 16 315 9.7 14.5 0.00 0.00 0.00 62 1012.7
20260504100124 15 315 4.8 4.8 0.00 0.00 0.00 71 1012.4
20260504081148 13 0.0 0.0 0.00 0.00 0.00 75 1012.0
20260504080123 14 0.0 0.0 0.00 0.00 0.00 76 1012.0
20260504070144 12 90 1.6 3.2 0.00 0.00 0.00 79 1011.5
20260504060144 12 0.0 0.0 0.00 0.00 0.00 78 1011.3
20260504050123 12 0.0 0.0 0.00 0.00 0.00 78 1011.0